Location: Hamayl? Da??
(36.7028°N, 30.1716°E)
Time: 07:03:51
(UTC+00:00)

Cosmos 2344 - Pass Details

Date: 04 August 2024
Orbit: 1207 x 3035 km, 63.3° (Epoch: 10 September)

Event Time Altitude Azimuth Distance (km) Brightness Sun altitude
Exits shadow 19:07:20 28° 98° (E) 2,167 4.3 -21.9°
Drops below altitude 10° 19:12:20 10° 55° (NE) 3,159 5.6 -22.6°
Sets 19:15:21 0° 44° (NE) 4,126 6.3 -23.0°
